GALAXY 19 (G-19)

Last updated on Sat Apr 13 2024 01:02:37 GMT+0100 (British Summer Time)

1 33376U 08045A 24103.51021472 -.00000147 00000+0 00000+0 0 9992 2 33376 0.0173 263.1335 0002688 113.7774 270.9475 1.00271639 56927
UTC large
Height (km)
Speed (km/s)
/
Latitude / Longitude
Inclination (degrees)
Orbital Period (minutes)
Azimuth
Elevation
Range (km)
Doppler Factor

Next 0 passes for location: London (51.5072 / 0.1276)

Sorry there are no passes over London.